Location: Prairie State College
(41.5244°N, 87.6382°W)
Time: 20:41:35
(UTC-05:00)

MSX - Visible Passes

Search period start: 31 July 2014 00:00
Search period end: 10 August 2014 00:00
Orbit: 896 x 906 km, 98.8° (Epoch: 25 July)

Date Brightness Start Highest point End Pass type
(mag) Time Alt. Az. Time Alt. Az. Time Alt. Az.
31 Jul 6.0 22:00:24 10° SW 22:04:39 21° W 22:08:57 10° NW visible
01 Aug 6.0 22:03:25 10° SW 22:07:32 20° W 22:11:41 10° NW visible
02 Aug 6.1 22:06:27 10° SW 22:10:24 19° W 22:14:23 10° NW visible
03 Aug 6.2 22:09:30 10° SW 22:13:17 18° W 22:17:05 10° NW visible
04 Aug 3.9 20:28:16 10° SSE 20:33:56 68° ENE 20:39:39 10° N visible
04 Aug 6.2 22:12:35 10° SW 22:16:09 17° W 22:19:45 10° NW visible
05 Aug 3.9 20:31:05 10° SSE 20:36:46 72° ENE 20:42:30 10° N visible
05 Aug 6.3 22:15:40 10° SW 22:19:02 16° W 22:22:25 10° NW visible
06 Aug 3.9 20:33:54 10° SSE 20:39:36 76° ENE 20:45:21 10° N visible
06 Aug 6.3 22:18:48 10° WSW 22:21:55 15° W 22:25:03 10° NW visible
07 Aug 3.8 20:36:43 10° SSE 20:42:26 80° ENE 20:48:12 10° NNW visible
07 Aug 6.3 22:21:57 10° WSW 22:24:48 14° W 22:27:40 10° WNW visible
08 Aug 3.9 20:39:32 10° SSE 20:45:16 85° ENE 20:51:03 10° NNW visible
08 Aug 6.4 22:25:08 10° WSW 22:27:41 13° W 22:30:14 10° WNW visible
09 Aug 3.9 20:42:22 10° SSE 20:48:06 89° ENE 20:53:54 10° NNW visible
09 Aug 6.4 22:28:24 10° WSW 22:30:34 12° W 22:32:44 10° WNW visible
